Saint Bonnet de Bellac- Haute Vienne - France
Donnes mto: lundi, 02/01/2012
Date Horaire Temp. E. Hum. E. P.atmo. Pluie Vent Direction Direction Ensoleilleme Solaire P. de rose Temp au vent Rafales
02/01/2012 00:00 11,2 C 91 % 1013,2 hPa 0,0 mm 18,4 km/h (3 Bft) S-SE 157 0 min 0 W/m 9,8 C 11,2 C 24,1 km/h (4 Bft)
02/01/2012 00:10 11,2 C 90 % 1013,2 hPa 0,0 mm 6,8 km/h (2 Bft) S 180 0 min 0 W/m 9,6 C 11,2 C 11,9 km/h (2 Bft)
02/01/2012 00:20 11,1 C 90 % 1013,1 hPa 0,0 mm 9,4 km/h (2 Bft) S-SO 202 0 min 0 W/m 9,5 C 11,1 C 14,8 km/h (3 Bft)
02/01/2012 00:30 11,1 C 90 % 1013,1 hPa 0,0 mm 10,4 km/h (2 Bft) S-SE 157 0 min 0 W/m 9,5 C 11,1 C 10,4 km/h (2 Bft)
02/01/2012 00:40 11,1 C 90 % 1012,9 hPa 0,0 mm 15,8 km/h (3 Bft) SO 225 0 min 0 W/m 9,5 C 11,1 C 19,8 km/h (3 Bft)
02/01/2012 00:50 10,9 C 91 % 1012,7 hPa 0,1 mm 10,1 km/h (2 Bft) S-SO 202 0 min 0 W/m 9,5 C 10,9 C 12,6 km/h (3 Bft)
02/01/2012 01:00 10,8 C 92 % 1012,7 hPa 0,0 mm 9,4 km/h (2 Bft) S 180 0 min 0 W/m 9,6 C 10,8 C 13,3 km/h (3 Bft)
02/01/2012 01:10 10,8 C 92 % 1012,8 hPa 0,0 mm 13,0 km/h (3 Bft) SO 225 0 min 0 W/m 9,6 C 10,8 C 19,1 km/h (3 Bft)
02/01/2012 01:20 10,8 C 93 % 1012,8 hPa 0,1 mm 13,0 km/h (3 Bft) S-SO 202 0 min 0 W/m 9,7 C 10,8 C 16,2 km/h (3 Bft)
02/01/2012 01:30 10,6 C 93 % 1012,9 hPa 0,1 mm 11,2 km/h (2 Bft) SO 225 0 min 0 W/m 9,5 C 10,6 C 17,6 km/h (3 Bft)
02/01/2012 01:40 10,6 C 93 % 1012,9 hPa 0,1 mm 10,8 km/h (2 Bft) S-SO 202 0 min 0 W/m 9,5 C 10,6 C 20,9 km/h (4 Bft)
02/01/2012 01:50 10,6 C 93 % 1012,8 hPa 0,1 mm 9,7 km/h (2 Bft) SO 225 0 min 0 W/m 9,5 C 10,6 C 15,5 km/h (3 Bft)
02/01/2012 02:02 10,6 C 93 % 1012,7 hPa 0,0 mm 12,2 km/h (2 Bft) S-SO 202 0 min 0 W/m 9,5 C 10,6 C 12,2 km/h (2 Bft)
02/01/2012 02:10 10,6 C 93 % 1012,5 hPa 0,2 mm 11,5 km/h (2 Bft) S-SO 202 0 min 0 W/m 9,5 C 10,6 C 17,6 km/h (3 Bft)
02/01/2012 02:20 10,5 C 93 % 1012,4 hPa 0,0 mm 12,2 km/h (2 Bft) SO 225 0 min 0 W/m 9,4 C 10,5 C 16,2 km/h (3 Bft)
02/01/2012 02:30 10,4 C 93 % 1012,3 hPa 0,1 mm 14,8 km/h (3 Bft) S-SO 202 0 min 0 W/m 9,3 C 10,4 C 18,4 km/h (3 Bft)
02/01/2012 02:40 10,4 C 94 % 1012,2 hPa 0,0 mm 11,5 km/h (2 Bft) SO 225 0 min 0 W/m 9,5 C 10,4 C 16,6 km/h (3 Bft)
02/01/2012 02:50 10,4 C 93 % 1012,1 hPa 0,1 mm 10,8 km/h (2 Bft) SO 225 0 min 0 W/m 9,3 C 10,4 C 18,0 km/h (3 Bft)
02/01/2012 03:00 10,3 C 94 % 1012,1 hPa 0,0 mm 12,2 km/h (2 Bft) SO 225 0 min 0 W/m 9,4 C 10,3 C 13,3 km/h (3 Bft)
02/01/2012 03:10 10,3 C 94 % 1012,0 hPa 0,0 mm 11,5 km/h (2 Bft) SO 225 0 min 0 W/m 9,4 C 10,3 C 15,1 km/h (3 Bft)
02/01/2012 03:20 10,3 C 94 % 1012,0 hPa 0,2 mm 11,5 km/h (2 Bft) SO 225 0 min 0 W/m 9,4 C 10,3 C 12,6 km/h (3 Bft)
02/01/2012 03:30 10,3 C 94 % 1012,0 hPa 0,0 mm 10,4 km/h (2 Bft) SO 225 0 min 0 W/m 9,4 C 10,3 C 11,5 km/h (2 Bft)
02/01/2012 03:40 10,3 C 94 % 1011,9 hPa 0,2 mm 14,8 km/h (3 Bft) SO 225 0 min 0 W/m 9,4 C 10,3 C 22,0 km/h (4 Bft)
02/01/2012 03:50 10,3 C 94 % 1011,8 hPa 0,1 mm 14,8 km/h (3 Bft) SO 225 0 min 0 W/m 9,4 C 10,3 C 17,3 km/h (3 Bft)
02/01/2012 04:00 10,3 C 94 % 1011,8 hPa 0,0 mm 7,2 km/h (2 Bft) S 180 0 min 0 W/m 9,4 C 10,3 C 12,2 km/h (2 Bft)
02/01/2012 04:10 10,3 C 94 % 1011,8 hPa 0,2 mm 9,7 km/h (2 Bft) SO 225 0 min 0 W/m 9,4 C 10,3 C 13,3 km/h (3 Bft)
02/01/2012 04:20 10,2 C 94 % 1011,7 hPa 0,2 mm 11,2 km/h (2 Bft) SO 225 0 min 0 W/m 9,3 C 10,2 C 15,1 km/h (3 Bft)
02/01/2012 04:30 10,2 C 94 % 1011,6 hPa 0,2 mm 11,2 km/h (2 Bft) SO 225 0 min 0 W/m 9,3 C 10,2 C 15,1 km/h (3 Bft)
02/01/2012 04:40 10,2 C 94 % 1011,5 hPa 0,1 mm 11,2 km/h (2 Bft) N 360 0 min 0 W/m 9,3 C 10,2 C 11,2 km/h (2 Bft)
02/01/2012 04:50 10,2 C 94 % 1011,6 hPa 0,1 mm 11,2 km/h (2 Bft) N 360 0 min 0 W/m 9,3 C 10,2 C 11,2 km/h (2 Bft)
02/01/2012 05:00 10,2 C 94 % 1011,6 hPa 0,6 mm 11,2 km/h (2 Bft) N 360 0 min 0 W/m 9,3 C 10,2 C 11,2 km/h (2 Bft)
02/01/2012 05:10 10,0 C 94 % 1011,8 hPa 0,2 mm 4,3 km/h (1 Bft) O 270 0 min 0 W/m 9,1 C 10,0 C 8,6 km/h (2 Bft)
02/01/2012 05:20 9,9 C 94 % 1011,8 hPa 0,1 mm 3,2 km/h (1 Bft) SO 225 0 min 0 W/m 9,0 C 9,9 C 7,6 km/h (2 Bft)
02/01/2012 05:30 9,9 C 94 % 1012,1 hPa 0,3 mm 6,8 km/h (2 Bft) NO 315 0 min 0 W/m 9,0 C 9,2 C 22,3 km/h (4 Bft)
02/01/2012 05:40 9,6 C 94 % 1012,5 hPa 0,2 mm 10,8 km/h (2 Bft) O-SO 247 0 min 0 W/m 8,7 C 8,0 C 21,2 km/h (4 Bft)
02/01/2012 05:50 9,3 C 94 % 1012,7 hPa 0,1 mm 6,1 km/h (2 Bft) S-SO 202 0 min 0 W/m 8,4 C 8,6 C 13,7 km/h (3 Bft)
02/01/2012 06:00 8,9 C 94 % 1012,7 hPa 0,1 mm 7,6 km/h (2 Bft) O 270 0 min 0 W/m 8,0 C 7,8 C 12,6 km/h (3 Bft)
02/01/2012 06:10 8,6 C 93 % 1012,8 hPa 0,0 mm 2,9 km/h (1 Bft) O 270 0 min 0 W/m 7,5 C 8,6 C 12,2 km/h (2 Bft)
02/01/2012 06:20 8,5 C 94 % 1013,1 hPa 0,0 mm 4,0 km/h (1 Bft) O-SO 247 0 min 0 W/m 7,6 C 8,5 C 8,6 km/h (2 Bft)
02/01/2012 06:30 8,3 C 93 % 1013,2 hPa 0,0 mm 1,1 km/h (1 Bft) O-SO 247 0 min 0 W/m 7,2 C 8,3 C 6,1 km/h (2 Bft)
02/01/2012 06:40 8,3 C 93 % 1013,4 hPa 0,0 mm 0,0 km/h (0 Bft) O-SO 247 0 min 0 W/m 7,2 C 8,3 C 3,6 km/h (1 Bft)
02/01/2012 06:50 8,2 C 93 % 1013,5 hPa 0,0 mm 2,2 km/h (1 Bft) O-SO 247 0 min 0 W/m 7,1 C 8,2 C 2,9 km/h (1 Bft)
02/01/2012 07:00 8,2 C 93 % 1013,6 hPa 0,0 mm 2,2 km/h (1 Bft) O-SO 247 0 min 0 W/m 7,1 C 8,2 C 2,9 km/h (1 Bft)
02/01/2012 07:10 8,2 C 93 % 1013,7 hPa 0,0 mm 2,2 km/h (1 Bft) N 360 0 min 0 W/m 7,1 C 8,2 C 2,2 km/h (1 Bft)
02/01/2012 07:20 8,1 C 93 % 1014,0 hPa 0,0 mm 2,5 km/h (1 Bft) SO 225 0 min 0 W/m 7,0 C 8,1 C 6,5 km/h (2 Bft)
02/01/2012 07:30 8,1 C 93 % 1014,1 hPa 0,0 mm 2,9 km/h (1 Bft) S-SO 202 0 min 0 W/m 7,0 C 8,1 C 7,6 km/h (2 Bft)
02/01/2012 07:40 8,0 C 93 % 1014,2 hPa 0,0 mm 2,2 km/h (1 Bft) S-SO 202 0 min 0 W/m 6,9 C 8,0 C 4,3 km/h (1 Bft)
02/01/2012 07:50 8,0 C 93 % 1014,3 hPa 0,0 mm 3,6 km/h (1 Bft) O-SO 247 0 min 0 W/m 6,9 C 8,0 C 7,9 km/h (2 Bft)
02/01/2012 08:00 8,0 C 93 % 1014,4 hPa 0,0 mm 4,7 km/h (1 Bft) S-SO 202 0 min 0 W/m 6,9 C 7,6 C 6,1 km/h (2 Bft)
02/01/2012 08:10 7,9 C 94 % 1014,6 hPa 0,0 mm 4,0 km/h (1 Bft) SO 225 0 min 0 W/m 7,0 C 7,9 C 6,8 km/h (2 Bft)
02/01/2012 08:20 7,9 C 94 % 1014,7 hPa 0,0 mm 6,5 km/h (2 Bft) SO 225 0 min 0 W/m 7,0 C 6,9 C 10,8 km/h (2 Bft)
02/01/2012 08:30 7,9 C 93 % 1014,9 hPa 0,0 mm 2,2 km/h (1 Bft) O 270 0 min 0 W/m 6,8 C 7,9 C 4,0 km/h (1 Bft)
02/01/2012 08:40 7,8 C 94 % 1015,0 hPa 0,0 mm 5,4 km/h (2 Bft) O-SO 247 0 min 0 W/m 6,9 C 7,1 C 7,2 km/h (2 Bft)
02/01/2012 08:50 7,8 C 94 % 1015,3 hPa 0,0 mm 4,7 km/h (1 Bft) SO 225 0 min 0 W/m 6,9 C 7,4 C 4,7 km/h (1 Bft)
02/01/2012 09:00 7,8 C 94 % 1015,5 hPa 0,0 mm 3,6 km/h (1 Bft) SO 225 2 min 0 W/m 6,9 C 7,8 C 3,6 km/h (1 Bft)
02/01/2012 09:10 7,8 C 94 % 1015,7 hPa 0,0 mm 2,2 km/h (1 Bft) O-SO 247 2 min 0 W/m 6,9 C 7,8 C 6,5 km/h (2 Bft)
02/01/2012 09:20 7,8 C 94 % 1016,0 hPa 0,0 mm 9,4 km/h (2 Bft) O-SO 247 2 min 0 W/m 6,9 C 6,1 C 19,1 km/h (3 Bft)
02/01/2012 09:30 7,8 C 94 % 1016,2 hPa 0,0 mm 6,5 km/h (2 Bft) SO 225 2 min 0 W/m 6,9 C 6,8 C 7,9 km/h (2 Bft)
02/01/2012 09:40 7,8 C 93 % 1016,4 hPa 0,0 mm 2,2 km/h (1 Bft) SO 225 2 min 0 W/m 6,7 C 7,8 C 4,0 km/h (1 Bft)
02/01/2012 09:50 7,8 C 93 % 1016,5 hPa 0,0 mm 2,2 km/h (1 Bft) O-SO 247 2 min 0 W/m 6,7 C 7,8 C 2,2 km/h (1 Bft)
02/01/2012 10:00 7,8 C 93 % 1016,8 hPa 0,0 mm 2,2 km/h (1 Bft) O-SO 247 2 min 0 W/m 6,7 C 7,8 C 4,0 km/h (1 Bft)
02/01/2012 10:10 7,8 C 93 % 1016,9 hPa 0,0 mm 2,9 km/h (1 Bft) SO 225 2 min 0 W/m 6,7 C 7,8 C 4,3 km/h (1 Bft)
02/01/2012 10:20 7,8 C 92 % 1017,2 hPa 0,0 mm 2,9 km/h (1 Bft) SO 225 2 min 0 W/m 6,6 C 7,8 C 7,9 km/h (2 Bft)
02/01/2012 10:30 7,8 C 92 % 1017,4 hPa 0,0 mm 5,0 km/h (1 Bft) O-SO 247 2 min 0 W/m 6,6 C 7,3 C 7,6 km/h (2 Bft)
02/01/2012 10:40 7,9 C 91 % 1017,6 hPa 0,0 mm 4,3 km/h (1 Bft) O-SO 247 2 min 0 W/m 6,5 C 7,9 C 4,3 km/h (1 Bft)
02/01/2012 10:50 8,3 C 91 % 1017,7 hPa 0,0 mm 5,8 km/h (2 Bft) SO 225 2 min 0 W/m 6,9 C 7,6 C 10,1 km/h (2 Bft)
02/01/2012 11:00 8,6 C 91 % 1017,6 hPa 0,0 mm 2,9 km/h (1 Bft) SO 225 2 min 0 W/m 7,2 C 8,6 C 6,8 km/h (2 Bft)
02/01/2012 11:10 8,9 C 90 % 1017,9 hPa 0,0 mm 3,2 km/h (1 Bft) SO 225 2 min 0 W/m 7,4 C 8,9 C 7,9 km/h (2 Bft)
02/01/2012 11:20 9,4 C 90 % 1018,0 hPa 0,0 mm 3,2 km/h (1 Bft) SO 225 2 min 0 W/m 7,8 C 9,4 C 4,3 km/h (1 Bft)
02/01/2012 11:30 9,9 C 88 % 1018,1 hPa 0,0 mm 6,5 km/h (2 Bft) SO 225 2 min 0 W/m 8,0 C 9,2 C 7,6 km/h (2 Bft)
02/01/2012 11:40 10,4 C 87 % 1018,2 hPa 0,0 mm 2,9 km/h (1 Bft) SO 225 2 min 0 W/m 8,3 C 10,4 C 7,9 km/h (2 Bft)
02/01/2012 11:50 11,0 C 86 % 1018,3 hPa 0,0 mm 3,6 km/h (1 Bft) O-SO 247 2 min 0 W/m 8,7 C 11,0 C 9,7 km/h (2 Bft)
02/01/2012 12:00 10,6 C 84 % 1018,2 hPa 0,0 mm 4,7 km/h (1 Bft) O-SO 247 2 min 0 W/m 8,0 C 10,6 C 10,1 km/h (2 Bft)
02/01/2012 12:10 9,9 C 84 % 1018,1 hPa 0,0 mm 2,5 km/h (1 Bft) O-SO 247 2 min 0 W/m 7,3 C 9,9 C 4,3 km/h (1 Bft)
02/01/2012 12:20 9,8 C 86 % 1018,1 hPa 0,0 mm 5,8 km/h (2 Bft) O-SO 247 2 min 0 W/m 7,6 C 9,3 C 15,1 km/h (3 Bft)
02/01/2012 12:30 10,1 C 84 % 1018,1 hPa 0,0 mm 2,5 km/h (1 Bft) SO 225 2 min 0 W/m 7,5 C 10,1 C 4,0 km/h (1 Bft)
02/01/2012 12:40 10,3 C 84 % 1018,1 hPa 0,0 mm 2,5 km/h (1 Bft) S-SO 202 2 min 0 W/m 7,7 C 10,3 C 7,6 km/h (2 Bft)
02/01/2012 12:50 10,5 C 82 % 1018,1 hPa 0,0 mm 1,8 km/h (1 Bft) SO 225 2 min 0 W/m 7,6 C 10,5 C 4,0 km/h (1 Bft)
02/01/2012 13:00 10,5 C 81 % 1018,0 hPa 0,0 mm 4,0 km/h (1 Bft) O-SO 247 2 min 0 W/m 7,4 C 10,5 C 8,3 km/h (2 Bft)
02/01/2012 13:10 10,5 C 80 % 1018,1 hPa 0,0 mm 5,8 km/h (2 Bft) S-SO 202 2 min 0 W/m 7,2 C 10,5 C 7,2 km/h (2 Bft)
02/01/2012 13:20 10,8 C 81 % 1018,3 hPa 0,0 mm 1,4 km/h (1 Bft) S-SO 202 2 min 0 W/m 7,7 C 10,8 C 1,4 km/h (1 Bft)
02/01/2012 13:30 10,3 C 81 % 1017,7 hPa 0,0 mm 7,2 km/h (2 Bft) O-SO 247 2 min 0 W/m 7,2 C 10,3 C 17,3 km/h (3 Bft)
02/01/2012 13:40 9,9 C 80 % 1017,6 hPa 0,0 mm 9,4 km/h (2 Bft) S-SO 202 2 min 0 W/m 6,6 C 8,6 C 14,4 km/h (3 Bft)
02/01/2012 13:50 9,8 C 82 % 1017,7 hPa 0,0 mm 4,3 km/h (1 Bft) S-SO 202 2 min 0 W/m 6,9 C 9,8 C 11,2 km/h (2 Bft)
02/01/2012 14:00 10,1 C 81 % 1017,9 hPa 0,0 mm 7,6 km/h (2 Bft) O-SO 247 2 min 0 W/m 7,0 C 10,1 C 8,6 km/h (2 Bft)
02/01/2012 14:10 10,3 C 80 % 1018,3 hPa 0,0 mm 3,6 km/h (1 Bft) O 270 2 min 0 W/m 7,0 C 10,3 C 9,0 km/h (2 Bft)
02/01/2012 14:20 10,1 C 77 % 1018,1 hPa 0,0 mm 6,1 km/h (2 Bft) O 270 2 min 0 W/m 6,3 C 10,1 C 15,8 km/h (3 Bft)
02/01/2012 14:30 9,6 C 78 % 1018,2 hPa 0,0 mm 1,4 km/h (1 Bft) O-SO 247 2 min 0 W/m 6,0 C 9,6 C 1,4 km/h (1 Bft)
02/01/2012 14:40 9,3 C 78 % 1018,2 hPa 0,0 mm 5,8 km/h (2 Bft) O-SO 247 2 min 0 W/m 5,7 C 8,7 C 11,9 km/h (2 Bft)
02/01/2012 14:50 9,1 C 78 % 1018,3 hPa 0,0 mm 5,4 km/h (2 Bft) O-SO 247 2 min 0 W/m 5,5 C 8,6 C 7,6 km/h (2 Bft)
02/01/2012 15:00 8,8 C 80 % 1018,3 hPa 0,0 mm 0,7 km/h (0 Bft) O-SO 247 2 min 0 W/m 5,5 C 8,8 C 3,2 km/h (1 Bft)
02/01/2012 15:10 8,8 C 80 % 1018,4 hPa 0,0 mm 4,0 km/h (1 Bft) SO 225 2 min 0 W/m 5,5 C 8,8 C 8,3 km/h (2 Bft)
02/01/2012 15:20 8,8 C 79 % 1018,5 hPa 0,0 mm 6,5 km/h (2 Bft) O 270 2 min 0 W/m 5,4 C 8,0 C 11,5 km/h (2 Bft)
02/01/2012 15:30 8,8 C 79 % 1018,7 hPa 0,0 mm 7,9 km/h (2 Bft) O-SO 247 2 min 0 W/m 5,4 C 7,6 C 15,5 km/h (3 Bft)
02/01/2012 15:40 8,8 C 79 % 1018,7 hPa 0,0 mm 4,0 km/h (1 Bft) SO 225 2 min 0 W/m 5,4 C 8,8 C 4,3 km/h (1 Bft)
02/01/2012 15:50 8,7 C 79 % 1018,9 hPa 0,0 mm 1,8 km/h (1 Bft) SO 225 2 min 0 W/m 5,3 C 8,7 C 3,6 km/h (1 Bft)
02/01/2012 16:00 8,4 C 80 % 1018,9 hPa 0,0 mm 5,0 km/h (1 Bft) O-SO 247 2 min 0 W/m 5,2 C 7,9 C 6,8 km/h (2 Bft)
02/01/2012 16:10 8,1 C 82 % 1019,1 hPa 0,0 mm 2,2 km/h (1 Bft) O-SO 247 2 min 0 W/m 5,2 C 8,1 C 8,6 km/h (2 Bft)
02/01/2012 16:20 7,9 C 83 % 1019,2 hPa 0,0 mm 8,6 km/h (2 Bft) O-SO 247 2 min 0 W/m 5,2 C 6,4 C 14,0 km/h (3 Bft)
02/01/2012 16:30 7,9 C 85 % 1019,6 hPa 0,0 mm 7,6 km/h (2 Bft) SO 225 2 min 0 W/m 5,5 C 6,6 C 13,0 km/h (3 Bft)
02/01/2012 16:40 8,0 C 85 % 1019,9 hPa 0,0 mm 4,3 km/h (1 Bft) SO 225 2 min 0 W/m 5,6 C 8,0 C 10,4 km/h (2 Bft)
02/01/2012 16:50 7,8 C 85 % 1020,0 hPa 0,0 mm 4,7 km/h (1 Bft) S-SO 202 2 min 0 W/m 5,4 C 7,4 C 11,9 km/h (2 Bft)
02/01/2012 17:00 7,7 C 84 % 1019,9 hPa 0,0 mm 6,5 km/h (2 Bft) O-SO 247 2 min 0 W/m 5,2 C 6,7 C 14,4 km/h (3 Bft)
02/01/2012 17:10 7,5 C 85 % 1020,1 hPa 0,0 mm 2,9 km/h (1 Bft) SO 225 0 min 0 W/m 5,1 C 7,5 C 8,3 km/h (2 Bft)
02/01/2012 17:20 7,4 C 85 % 1020,5 hPa 0,0 mm 3,2 km/h (1 Bft) O-SO 247 0 min 0 W/m 5,0 C 7,4 C 3,2 km/h (1 Bft)
02/01/2012 17:30 7,3 C 85 % 1020,7 hPa 0,0 mm 0,0 km/h (0 Bft) O-SO 247 0 min 0 W/m 4,9 C 7,3 C 0,0 km/h (0 Bft)
02/01/2012 17:40 7,0 C 85 % 1021,0 hPa 0,0 mm 0,4 km/h (0 Bft) O-SO 247 0 min 0 W/m 4,7 C 7,0 C 0,4 km/h (0 Bft)
02/01/2012 17:50 6,8 C 86 % 1021,3 hPa 0,0 mm 0,7 km/h (0 Bft) O-SO 247 0 min 0 W/m 4,6 C 6,8 C 0,7 km/h (0 Bft)
02/01/2012 18:00 6,4 C 86 % 1021,4 hPa 0,0 mm 0,4 km/h (0 Bft) O-SO 247 0 min 0 W/m 4,2 C 6,4 C 0,4 km/h (0 Bft)
02/01/2012 18:10 6,2 C 88 % 1021,6 hPa 0,0 mm 1,1 km/h (1 Bft) O 270 0 min 0 W/m 4,4 C 6,2 C 3,2 km/h (1 Bft)
02/01/2012 18:20 6,1 C 88 % 1021,8 hPa 0,0 mm 2,2 km/h (1 Bft) O-SO 247 0 min 0 W/m 4,3 C 6,1 C 4,3 km/h (1 Bft)
02/01/2012 18:30 6,0 C 88 % 1021,8 hPa 0,0 mm 0,4 km/h (0 Bft) SO 225 0 min 0 W/m 4,2 C 6,0 C 0,4 km/h (0 Bft)
02/01/2012 18:40 5,9 C 88 % 1021,9 hPa 0,0 mm 1,4 km/h (1 Bft) SO 225 0 min 0 W/m 4,1 C 5,9 C 6,5 km/h (2 Bft)
02/01/2012 18:50 5,8 C 89 % 1022,1 hPa 0,0 mm 4,0 km/h (1 Bft) O-SO 247 0 min 0 W/m 4,1 C 5,8 C 4,3 km/h (1 Bft)
02/01/2012 19:00 5,7 C 89 % 1022,4 hPa 0,0 mm 2,9 km/h (1 Bft) SO 225 0 min 0 W/m 4,0 C 5,7 C 4,3 km/h (1 Bft)
02/01/2012 19:10 5,6 C 89 % 1022,6 hPa 0,0 mm 4,0 km/h (1 Bft) SO 225 0 min 0 W/m 3,9 C 5,6 C 10,1 km/h (2 Bft)
02/01/2012 19:20 5,4 C 89 % 1022,7 hPa 0,0 mm 2,2 km/h (1 Bft) S-SO 202 0 min 0 W/m 3,7 C 5,4 C 4,3 km/h (1 Bft)
02/01/2012 19:30 5,3 C 90 % 1023,0 hPa 0,0 mm 1,8 km/h (1 Bft) SO 225 0 min 0 W/m 3,8 C 5,3 C 2,9 km/h (1 Bft)
02/01/2012 19:40 5,3 C 90 % 1023,1 hPa 0,0 mm 3,6 km/h (1 Bft) S-SO 202 0 min 0 W/m 3,8 C 5,3 C 4,3 km/h (1 Bft)
02/01/2012 19:50 5,2 C 90 % 1023,3 hPa 0,0 mm 3,2 km/h (1 Bft) SO 225 0 min 0 W/m 3,7 C 5,2 C 5,8 km/h (2 Bft)
02/01/2012 20:00 5,1 C 90 % 1023,3 hPa 0,0 mm 4,0 km/h (1 Bft) S-SO 202 0 min 0 W/m 3,6 C 5,1 C 6,5 km/h (2 Bft)
02/01/2012 20:10 5,0 C 91 % 1023,4 hPa 0,0 mm 2,5 km/h (1 Bft) SO 225 0 min 0 W/m 3,7 C 5,0 C 6,1 km/h (2 Bft)
02/01/2012 20:20 4,8 C 91 % 1023,5 hPa 0,0 mm 5,0 km/h (1 Bft) S-SO 202 0 min 0 W/m 3,5 C 3,9 C 6,8 km/h (2 Bft)
02/01/2012 20:30 4,8 C 91 % 1023,7 hPa 0,0 mm 6,1 km/h (2 Bft) S-SO 202 0 min 0 W/m 3,5 C 3,5 C 9,0 km/h (2 Bft)
02/01/2012 20:40 4,8 C 92 % 1023,6 hPa 0,0 mm 5,4 km/h (2 Bft) SO 225 0 min 0 W/m 3,6 C 3,7 C 8,3 km/h (2 Bft)
02/01/2012 20:50 4,7 C 92 % 1023,7 hPa 0,0 mm 2,2 km/h (1 Bft) S-SO 202 0 min 0 W/m 3,5 C 4,7 C 4,0 km/h (1 Bft)
02/01/2012 21:00 4,6 C 92 % 1023,8 hPa 0,0 mm 4,3 km/h (1 Bft) SO 225 0 min 0 W/m 3,4 C 4,6 C 4,3 km/h (1 Bft)
02/01/2012 21:10 4,6 C 92 % 1023,9 hPa 0,0 mm 7,6 km/h (2 Bft) SO 225 0 min 0 W/m 3,4 C 2,8 C 10,1 km/h (2 Bft)
02/01/2012 21:20 4,6 C 92 % 1024,0 hPa 0,0 mm 3,6 km/h (1 Bft) S-SO 202 0 min 0 W/m 3,4 C 4,6 C 6,5 km/h (2 Bft)
02/01/2012 21:30 4,6 C 92 % 1024,1 hPa 0,0 mm 4,3 km/h (1 Bft) SO 225 0 min 0 W/m 3,4 C 4,6 C 6,5 km/h (2 Bft)
02/01/2012 21:40 4,5 C 92 % 1024,4 hPa 0,0 mm 4,7 km/h (1 Bft) SO 225 0 min 0 W/m 3,3 C 3,6 C 10,4 km/h (2 Bft)
02/01/2012 21:50 4,5 C 93 % 1024,4 hPa 0,0 mm 2,5 km/h (1 Bft) O-SO 247 0 min 0 W/m 3,5 C 4,5 C 2,5 km/h (1 Bft)
02/01/2012 22:00 4,4 C 93 % 1024,5 hPa 0,0 mm 3,6 km/h (1 Bft) SO 225 0 min 0 W/m 3,4 C 4,4 C 8,3 km/h (2 Bft)
02/01/2012 22:10 4,4 C 93 % 1024,8 hPa 0,0 mm 5,8 km/h (2 Bft) O-SO 247 0 min 0 W/m 3,4 C 3,1 C 13,7 km/h (3 Bft)
02/01/2012 22:20 4,4 C 93 % 1024,9 hPa 0,0 mm 0,0 km/h (0 Bft) N 360 0 min 0 W/m 3,4 C 4,4 C 0,0 km/h (0 Bft)
02/01/2012 22:30 4,4 C 93 % 1024,9 hPa 0,0 mm 1,1 km/h (1 Bft) SO 225 0 min 0 W/m 3,4 C 4,4 C 3,2 km/h (1 Bft)
02/01/2012 22:40 4,4 C 93 % 1025,1 hPa 0,0 mm 3,2 km/h (1 Bft) S-SO 202 0 min 0 W/m 3,4 C 4,4 C 6,5 km/h (2 Bft)
02/01/2012 22:50 4,2 C 93 % 1025,1 hPa 0,0 mm 3,6 km/h (1 Bft) SO 225 0 min 0 W/m 3,2 C 4,2 C 3,6 km/h (1 Bft)
02/01/2012 23:00 4,1 C 94 % 1025,3 hPa 0,0 mm 2,9 km/h (1 Bft) O-SO 247 0 min 0 W/m 3,2 C 4,1 C 4,3 km/h (1 Bft)
02/01/2012 23:10 4,0 C 94 % 1025,3 hPa 0,0 mm 4,3 km/h (1 Bft) O-SO 247 0 min 0 W/m 3,1 C 4,0 C 10,8 km/h (2 Bft)
02/01/2012 23:20 4,0 C 94 % 1025,3 hPa 0,0 mm 4,0 km/h (1 Bft) O-SO 247 0 min 0 W/m 3,1 C 4,0 C 7,2 km/h (2 Bft)
02/01/2012 23:30 3,9 C 94 % 1025,3 hPa 0,0 mm 6,8 km/h (2 Bft) SO 225 0 min 0 W/m 3,0 C 2,2 C 9,7 km/h (2 Bft)
02/01/2012 23:40 3,9 C 94 % 1025,4 hPa 0,0 mm 5,4 km/h (2 Bft) S-SO 202 0 min 0 W/m 3,0 C 2,7 C 9,0 km/h (2 Bft)
02/01/2012 23:50 4,1 C 94 % 1025,4 hPa 0,0 mm 2,2 km/h (1 Bft) SO 225 0 min 0 W/m 3,2 C 4,1 C 3,2 km/h (1 Bft)
_ Min-Heure 23:40 14:20 04:40 - 22:20 - - - - 23:40 23:30 22:20
Minimum _ 3,9 C 77 % 1011,5 hPa - 0,0 km/h (0 Bft) - - - - 3,0 C 2,2 C 0,0 km/h (0 Bft)
_ Max-Heure 00:10 23:50 23:50 05:00 00:00 - - 17:00 23:50 00:00 00:10 00:00
Maximum _ 11,2 C 94 % 1025,4 hPa 0,6 mm 18,4 km/h
S-SE (3 Bft)
- - 2 min 0 W/m 9,8 C 11,2 C 24,1 km/h
S-SE (4 Bft)
Moyenne _ 8,2 C 90 % 1017,6 hPa #3,9 mm 5,5 km/h (2 Bft) SO - #1:38 h 0 W/m 6,5 C 7,9 C 8,9 km/h (2 Bft)
Saint Bonnet de Bellac- Haute Vienne - France